Istanbul, Turkey

6:43 AM EEST on July 28, 2016 (GMT +0300)
Ataturk

Weather History for LTBA - May, 2012

Change the Weather History Date:

Wednesday, May 9, 2012

  Actual Average Record
Temperature  
Mean Temperature 64 °F -  
Max Temperature 70 °F 71 °F 84 °F (1997)
Min Temperature 59 °F 57 °F 44 °F (2008)
Growing Degree Days 14 (Base 50)    
Moisture  
Dew Point 54 °F    
Average Humidity 73    
Maximum Humidity 94    
Minimum Humidity 51    
Precipitation  
Precipitation 0.00 in - - ()
Sea Level Pressure  
Sea Level Pressure 30.04 in    
Wind  
Wind Speed 11 mph ()    
Max Wind Speed 18 mph    
Max Gust Speed 25 mph    
Visibility 5.7 miles    
Events      
Averages and records for this station are not official NWS values.
T = Trace of Precipitation, MM = Missing Value Source: Averaged Metar Reports

Daily Weather History Graph

Daily Weather History Graph

Search for Another Location

Airport or City:

Trip Planner

Search our weather history database for the weather conditions in past years. The results will help you decide how hot, cold, wet, or windy it might be!

Date:

Astronomy

May. 09, 2012 Rise Set
Actual Time 5:53 AM EEST 8:09 PM EEST
Civil Twilight 5:22 AM EEST 8:40 PM EEST
Nautical Twilight 4:44 AM EEST 9:18 PM EEST
Astronomical Twilight 4:02 AM EEST 10:00 PM EEST
Moon 11:54 PM EEST (5/9) 8:45 AM EEST (5/9)
Length of Visible Light 15h 18m
Length of Day
14h 16m
Waning Gibbous, 85% of the Moon is Illuminated
May 9
Waning Gibbous
May 13
Last Quarter
May 21
New
May 28
First Quarter
Jun 4
Full

Hourly Weather History & Observations

Time (EEST) Temp. Dew Point Humidity Pressure Visibility Wind Dir Wind Speed Gust Speed Precip Events Conditions
12:20 AM 59.0 °F 55.4 °F 88% 30.01 in - NNE 12.7 mph - N/A   Clear
12:50 AM 59.0 °F 55.4 °F 88% 30.01 in - North 13.8 mph - N/A   Clear
1:20 AM 60.8 °F 55.4 °F 82% 30.01 in 6.2 mi ENE 5.8 mph - N/A   Partly Cloudy
1:50 AM 59.0 °F 53.6 °F 82% 30.01 in 6.2 mi NNE 12.7 mph - N/A   Partly Cloudy
2:20 AM 59.0 °F 55.4 °F 88% 30.01 in 6.2 mi NNE 10.4 mph - N/A   Partly Cloudy
2:50 AM 59.0 °F 55.4 °F 88% 30.01 in 6.2 mi NNE 12.7 mph - N/A   Scattered Clouds
3:00 AM 60 °F 55 °F 78% 30.01 in 6 mi NNE 12.7 mph - -   Partly Cloudy
3:20 AM 59.0 °F 55.4 °F 88% 30.01 in 6.2 mi NNE 10.4 mph - N/A   Partly Cloudy
3:50 AM 60.8 °F 55.4 °F 82% 30.01 in 6.2 mi NE 10.4 mph - N/A   Partly Cloudy
4:20 AM 60.8 °F 55.4 °F 82% 29.98 in 6.2 mi NE 10.4 mph - N/A   Scattered Clouds
4:50 AM 59.0 °F 57.2 °F 94% 29.98 in 6.2 mi NE 11.5 mph - N/A   Scattered Clouds
5:20 AM 59.0 °F 55.4 °F 88% 29.98 in 6.2 mi NE 13.8 mph - N/A   Scattered Clouds
5:50 AM 59.0 °F 55.4 °F 88% 30.01 in 3.7 mi NE 11.5 mph - N/A   Scattered Clouds
6:20 AM 59.0 °F 55.4 °F 88% 30.01 in 3.7 mi NE 11.5 mph - N/A   Mostly Cloudy
6:50 AM 59.0 °F 55.4 °F 88% 30.01 in 2.8 mi NE 11.5 mph - N/A   Mostly Cloudy
7:20 AM 60.8 °F 57.2 °F 88% 30.01 in 3.7 mi NNE 9.2 mph - N/A   Mostly Cloudy
7:50 AM 60.8 °F 55.4 °F 82% 30.01 in 3.7 mi NE 10.4 mph - N/A   Mostly Cloudy
8:20 AM 60.8 °F 53.6 °F 77% 30.04 in 3.7 mi NE 11.5 mph - N/A   Mostly Cloudy
8:50 AM 62.6 °F 53.6 °F 72% 30.04 in 3.7 mi Variable 9.2 mph - N/A   Mostly Cloudy
9:00 AM 62 °F 53 °F 63% 30.04 in 4 mi NE 9.2 mph - -   Mist
9:20 AM 62.6 °F 51.8 °F 68% 30.04 in 3.7 mi Variable 10.4 mph - N/A   Mostly Cloudy
9:50 AM 62.6 °F 51.8 °F 68% 30.04 in 6.2 mi ENE 10.4 mph - N/A   Mostly Cloudy
10:20 AM 62.6 °F 51.8 °F 68% 30.04 in 6.2 mi ENE 12.7 mph - N/A   Scattered Clouds
10:50 AM 64.4 °F 51.8 °F 64% 30.04 in 6.2 mi ENE 12.7 mph - N/A   Scattered Clouds
11:20 AM 64.4 °F 53.6 °F 68% 30.04 in 6.2 mi NE 11.5 mph - N/A   Scattered Clouds
11:50 AM 66.2 °F 53.6 °F 64% 30.04 in 6.2 mi NE 12.7 mph - N/A   Scattered Clouds
12:20 PM 66.2 °F 51.8 °F 60% 30.04 in 6.2 mi ENE 12.7 mph - N/A   Scattered Clouds
12:50 PM 66.2 °F 53.6 °F 64% 30.04 in 6.2 mi Variable 13.8 mph - N/A   Scattered Clouds
1:20 PM 69.8 °F 53.6 °F 56% 30.06 in 6.2 mi NE 11.5 mph - N/A   Scattered Clouds
1:50 PM 68.0 °F 53.6 °F 60% 30.06 in 6.2 mi NE 11.5 mph - N/A   Scattered Clouds
2:20 PM 68.0 °F 53.6 °F 60% 30.04 in 6.2 mi North 16.1 mph - N/A   Scattered Clouds
2:50 PM 68.0 °F 55.4 °F 64% 30.04 in 6.2 mi NNE 13.8 mph 25.3 mph N/A   Scattered Clouds
3:00 PM 68 °F 54 °F 51% 30.06 in 6 mi NNE 13.8 mph - -   Partly Cloudy
3:20 PM 66.2 °F 55.4 °F 68% 30.04 in 6.2 mi North 18.4 mph - N/A   Scattered Clouds
3:50 PM 66.2 °F 53.6 °F 64% 30.04 in 6.2 mi NNE 13.8 mph - N/A   Mostly Cloudy
4:20 PM 64.4 °F 53.6 °F 68% 30.04 in 6.2 mi NE 12.7 mph - N/A   Mostly Cloudy
4:50 PM 64.4 °F 53.6 °F 68% 30.04 in 6.2 mi NE 12.7 mph - N/A   Mostly Cloudy
5:20 PM 64.4 °F 55.4 °F 73% 30.06 in 6.2 mi ENE 13.8 mph - N/A   Mostly Cloudy
5:50 PM 64.4 °F 53.6 °F 68% 30.06 in 6.2 mi NE 13.8 mph - N/A   Mostly Cloudy
6:20 PM 64.4 °F 53.6 °F 68% 30.06 in 6.2 mi NE 9.2 mph - N/A   Mostly Cloudy
6:50 PM 62.6 °F 53.6 °F 72% 30.06 in 6.2 mi ENE 9.2 mph - N/A   Mostly Cloudy
7:20 PM 64.4 °F 53.6 °F 68% 30.06 in 6.2 mi NE 6.9 mph - N/A   Mostly Cloudy
7:50 PM 64.4 °F 53.6 °F 68% 30.06 in 6.2 mi NNE 8.1 mph - N/A   Mostly Cloudy
8:20 PM 64.4 °F 53.6 °F 68% 30.09 in 6.2 mi Variable 8.1 mph - N/A   Mostly Cloudy
8:50 PM 64.4 °F 53.6 °F 68% 30.09 in 6.2 mi NNE 10.4 mph - N/A   Mostly Cloudy
9:00 PM 64 °F 53 °F 59% 30.10 in 6 mi NNE 10.4 mph - -   Mostly Cloudy
9:20 PM 62.6 °F 53.6 °F 72% 30.09 in 6.2 mi NNE 10.4 mph - N/A   Mostly Cloudy
9:50 PM 62.6 °F 53.6 °F 72% 30.09 in 6.2 mi NNE 11.5 mph - N/A   Mostly Cloudy
10:20 PM 62.6 °F 53.6 °F 72% 30.09 in 6.2 mi NE 9.2 mph - N/A   Scattered Clouds
10:50 PM 62.6 °F 53.6 °F 72% 30.09 in 6.2 mi NE 11.5 mph - N/A   Scattered Clouds
11:20 PM 60.8 °F 53.6 °F 77% 30.09 in 6.2 mi NE 12.7 mph - N/A   Scattered Clouds
11:50 PM 62.6 °F 53.6 °F 72% 30.09 in 6.2 mi NE 12.7 mph - N/A   Scattered Clouds